Temp
79 83 82 83 83 83 83 83 82 82 82 82 82 82 82 82 82 82 83 83 83 83 83 84 84 84 84 84 84 84 83 83 83 83 83 83 83 82 82 82 84 88 82
83 84 81 83 83 83 82 82 82 82 82 82 82 82 82 82 82 82 82 83 83 83 84 84 84 84 84 83 84 83 83 83 84 84 84 84 84 83 82 83 84 85 82
84 85 85 82 83 83 82 82 82 82 82 82 82 83 83 83 83 83 83 83 83 84 84 84 84 84 84 84 84 83 83 83 83 84 85 89 87 83 83 83 82 82 82
86 88 87 81 82 83 82 82 83 83 82 83 83 83 83 83 83 83 83 83 84 83 84 84 84 84 84 84 84 84 83 83 82 84 89 90 89 83 83 82 82 82 82
85 87 86 82 82 83 82 82 83 83 83 83 83 83 82 84 84 83 84 84 83 83 84 84 84 84 83 83 84 83 83 82 82 86 88 88 89 84 82 82 82 82 82
86 88 84 82 83 83 83 83 83 82 82 83 83 83 83 83 83 83 83 84 83 83 84 84 84 83 84 83 82 83 82 82 84 87 87 85 87 83 83 83 83 82 82
87 88 88 83 83 82 83 82 83 83 82 82 83 83 83 83 84 84 83 83 84 83 84 84 84 82 82 84 84 83 82 82 86 86 86 86 85 82 82 82 82 82 81
87 88 88 83 83 83 83 83 83 83 83 83 82 82 83 82 83 82 84 84 84 84 84 83 84 83 84 84 82 82 82 83 87 86 86 87 82 82 83 82 82 81 82
87 87 87 88 85 83 83 83 82 83 83 83 83 82 83 82 84 83 83 85 85 84 84 84 84 82 84 83 82 82 81 81 86 87 88 88 81 82 82 81 81 82 81
86 87 85 87 87 87 87 83 83 83 82 82 82 83 84 83 83 84 83 84 84 84 84 82 84 84 83 82 82 82 81 82 87 87 89 87 81 83 82 82 82 81 81
83 85 87 87 85 84 86 86 84 83 83 83 84 82 84 86 86 88 84 84 84 84 84 84 84 84 83 84 82 82 83 88 88 89 90 80 81 83 82 82 81 81 81
81 83 85 85 85 86 88 85 85 86 86 85 85 84 85 86 86 87 85 84 84 84 84 84 84 82 85 91 85 83 90 88 89 89 89 80 81 82 82 81 81 81 81
81 83 84 84 84 85 85 86 87 86 86 85 83 84 84 85 86 86 86 87 87 84 90 88 87 88 86 89 88 89 88 88 90 90 84 81 82 84 82 81 81 81 81
78 81 84 84 83 84 86 86 85 85 86 86 85 82 83 85 84 84 85 84 84 87 86 86 88 85 86 86 88 87 88 89 91 90 86 81 82 82 82 81 81 81 80
80 80 83 83 82 82 82 83 85 85 87 86 85 84 85 85 83 85 83 85 85 87 88 86 86 86 85 87 88 87 87 87 87 91 91 81 80 81 82 81 81 81 80
81 81 83 82 82 82 83 82 83 85 85 86 87 85 82 85 83 85 84 85 85 87 88 87 86 86 86 88 85 86 86 88 86 87 91 89 80 80 81 81 81 81 81
82 82 82 82 83 81 82 83 84 86 86 87 87 84 83 83 82 83 84 85 86 85 84 85 86 87 88 88 85 86 89 87 89 87 89 91 90 80 80 81 81 81 81
82 80 82 85 83 82 83 83 85 86 86 87 87 87 84 84 83 84 85 86 85 85 87 87 88 87 87 88 86 87 88 89 87 87 89 89 90 91 84 80 80 80 81
82 81 81 82 82 82 82 83 84 84 84 86 87 87 84 84 83 84 86 86 84 86 87 87 87 87 86 88 89 89 89 89 88 92 87 87 88 88 90 83 79 79 80
83 82 82 83 82 81 82 82 84 85 85 85 86 86 84 85 83 83 86 85 87 86 86 87 84 85 87 87 90 89 89 89 89 89 90 91 89 87 89 86 88 89 79
83 81 80 80 80 81 81 82 82 83 84 84 85 84 84 84 83 83 86 83 85 87 85 84 84 83 85 86 87 88 89 88 88 89 91 91 90 90 89 89 88 90 90
83 81 80 80 80 80 83 83 84 84 85 85 85 84 85 85 83 84 84 85 84 86 83 83 83 85 86 86 85 84 83 87 91 92 91 90 89 91 91 90 89 87 88
83 81 80 80 80 81 82 82 82 82 83 83 84 85 85 85 84 84 84 84 84 85 86 84 83 83 85 84 83 84 82 80 84 90 89 91 88 90 91 90 90 89 88
84 84 82 81 81 81 81 82 80 83 83 86 85 86 86 85 84 84 84 83 82 85 84 84 85 85 84 84 85 87 83 83 82 83 91 91 90 91 91 92 93 93 90
85 85 84 81 80 82 80 82 82 82 86 87 86 83 84 84 84 84 84 84 83 85 84 84 83 82 86 86 87 86 84 86 83 83 83 86 92 93 94 93 93 93 92
86 85 84 80 79 81 80 81 80 82 82 84 84 84 85 86 86 83 84 84 83 83 83 85 84 83 83 84 87 86 87 86 85 85 84 84 85 90 93 94 93 93 94
MSLP
1016.81 1016.96 1017.12 1017.08 1017.22 1017.48 1017.62 1017.80 1017.95 1018.08 1018.19 1018.28 1018.30 1018.37 1018.48 1018.54 1018.58 1018.59 1018.52 1018.53 1018.51 1018.58 1018.59 1018.56 1018.65 1018.72 1018.78 1018.86 1018.81 1018.94 1019.14 1019.29 1019.20 1019.28 1019.44 1019.50 1019.63 1019.79 1019.82 1019.90 1019.60 1019.62 1020.06
1016.34 1016.84 1017.14 1017.23 1017.42 1017.64 1017.87 1017.99 1018.12 1018.22 1018.32 1018.44 1018.46 1018.57 1018.66 1018.74 1018.85 1018.84 1018.83 1018.86 1018.85 1018.84 1018.86 1018.90 1019.00 1019.04 1019.09 1019.17 1019.20 1019.38 1019.48 1019.54 1019.42 1019.59 1019.70 1019.86 1020.02 1020.12 1020.22 1020.15 1020.13 1020.27 1020.32
1016.18 1016.68 1017.04 1017.38 1017.58 1017.74 1018.00 1018.10 1018.15 1018.35 1018.48 1018.54 1018.64 1018.81 1018.87 1018.90 1018.94 1019.00 1019.10 1019.13 1019.14 1019.07 1019.10 1019.20 1019.36 1019.40 1019.35 1019.39 1019.53 1019.52 1019.73 1019.78 1019.87 1019.98 1019.90 1019.80 1020.19 1020.46 1020.61 1020.60 1020.64 1020.68 1020.76
1016.10 1016.57 1016.95 1017.50 1017.62 1017.79 1018.00 1018.19 1018.40 1018.56 1018.65 1018.73 1018.84 1018.93 1019.00 1019.05 1019.09 1019.16 1019.28 1019.34 1019.29 1019.38 1019.49 1019.52 1019.65 1019.60 1019.76 1019.81 1019.82 1019.97 1020.10 1020.20 1020.34 1020.29 1019.92 1020.09 1020.29 1020.84 1020.94 1021.10 1021.10 1021.14 1021.20
1016.35 1016.68 1017.14 1017.52 1017.65 1017.86 1018.11 1018.30 1018.43 1018.61 1018.70 1018.84 1019.00 1019.12 1019.24 1019.28 1019.33 1019.38 1019.46 1019.54 1019.60 1019.71 1019.78 1019.81 1019.93 1020.02 1020.20 1020.11 1020.11 1020.36 1020.57 1020.62 1020.62 1020.47 1020.54 1020.52 1020.68 1021.28 1021.34 1021.35 1021.36 1021.39 1021.45
1016.51 1016.86 1017.43 1017.58 1017.74 1018.04 1018.23 1018.38 1018.51 1018.70 1018.86 1018.99 1019.18 1019.30 1019.40 1019.60 1019.67 1019.70 1019.74 1019.80 1019.91 1020.06 1020.08 1020.18 1020.29 1020.32 1020.29 1020.56 1020.68 1020.74 1020.95 1021.05 1020.89 1020.80 1020.91 1021.32 1021.12 1021.62 1021.64 1021.70 1021.80 1021.89 1021.88
1016.52 1016.96 1017.34 1017.72 1017.87 1018.12 1018.31 1018.55 1018.74 1018.75 1018.99 1019.16 1019.25 1019.43 1019.52 1019.69 1019.88 1019.93 1019.98 1020.01 1020.17 1020.46 1020.44 1020.49 1020.56 1020.54 1020.82 1020.90 1020.96 1021.33 1021.32 1021.47 1021.22 1021.23 1021.33 1021.40 1021.73 1021.92 1022.00 1022.09 1022.22 1022.23 1022.28
1016.60 1016.96 1017.40 1017.89 1018.17 1018.44 1018.57 1018.70 1018.84 1019.03 1019.22 1019.35 1019.50 1019.68 1019.82 1019.99 1020.30 1020.26 1020.26 1020.32 1020.48 1020.62 1020.66 1020.78 1020.83 1020.90 1021.14 1021.19 1021.28 1021.65 1021.70 1021.69 1021.59 1021.70 1021.66 1021.65 1022.26 1022.22 1022.34 1022.47 1022.48 1022.58 1022.57
1016.88 1017.25 1017.55 1017.80 1018.26 1018.59 1018.74 1018.84 1019.00 1019.30 1019.36 1019.62 1019.66 1019.84 1019.97 1020.30 1020.40 1020.56 1020.66 1020.55 1020.70 1020.86 1021.00 1021.02 1021.13 1021.12 1021.35 1021.36 1021.66 1021.90 1022.11 1022.16 1021.93 1021.88 1021.82 1022.08 1022.62 1022.56 1022.58 1022.73 1022.85 1022.88 1022.87
1017.10 1017.49 1017.82 1018.00 1018.20 1018.43 1018.67 1019.07 1019.32 1019.50 1019.63 1019.84 1019.95 1020.10 1020.17 1020.51 1020.65 1020.81 1020.86 1020.85 1021.00 1021.18 1021.30 1021.30 1021.38 1021.48 1021.45 1021.56 1021.80 1022.06 1022.33 1022.34 1022.18 1022.23 1022.19 1022.58 1022.85 1022.79 1022.90 1023.06 1023.18 1023.17 1023.19
1017.56 1017.82 1017.92 1018.11 1018.56 1018.85 1018.88 1019.16 1019.44 1019.72 1019.82 1019.96 1020.05 1020.38 1020.50 1020.63 1020.74 1020.68 1021.05 1021.11 1021.33 1021.52 1021.68 1021.72 1021.71 1021.78 1021.78 1021.91 1022.12 1022.41 1022.46 1022.26 1022.34 1022.40 1022.43 1023.12 1023.07 1023.10 1023.22 1023.32 1023.42 1023.43 1023.46
1017.61 1017.95 1018.05 1018.38 1018.67 1018.90 1018.90 1019.34 1019.58 1019.79 1019.93 1020.10 1020.28 1020.56 1020.69 1020.83 1020.93 1021.01 1021.27 1021.45 1021.62 1021.80 1021.88 1022.01 1021.98 1022.14 1022.09 1021.82 1022.27 1022.58 1022.29 1022.60 1022.54 1022.61 1022.69 1023.34 1023.26 1023.38 1023.52 1023.63 1023.67 1023.70 1023.64
1017.82 1018.10 1018.40 1018.61 1018.96 1019.04 1019.28 1019.49 1019.65 1020.01 1020.12 1020.42 1020.64 1020.75 1020.94 1020.95 1021.19 1021.39 1021.59 1021.64 1021.74 1022.04 1021.74 1021.99 1022.16 1022.18 1022.24 1022.20 1022.34 1022.36 1022.67 1022.72 1022.75 1022.80 1023.22 1023.46 1023.52 1023.46 1023.74 1023.87 1023.84 1023.95 1023.86
1018.04 1018.30 1018.48 1018.67 1019.09 1019.30 1019.47 1019.59 1019.89 1020.03 1020.19 1020.41 1020.82 1021.10 1021.16 1021.04 1021.37 1021.54 1021.75 1022.07 1022.18 1022.14 1022.22 1022.27 1022.21 1022.46 1022.42 1022.55 1022.46 1022.63 1022.72 1022.76 1022.82 1022.95 1023.31 1023.70 1023.74 1023.81 1023.96 1024.06 1024.07 1024.08 1024.01
1018.03 1018.54 1018.60 1018.78 1019.12 1019.51 1019.80 1019.99 1020.09 1020.29 1020.26 1020.52 1020.92 1021.25 1021.28 1021.32 1021.54 1021.72 1022.12 1022.22 1022.31 1022.28 1022.16 1022.25 1022.34 1022.33 1022.38 1022.34 1022.52 1022.73 1022.83 1023.06 1023.21 1023.24 1023.26 1023.93 1024.00 1023.98 1024.03 1024.08 1024.09 1024.13 1024.16
1018.09 1018.39 1018.68 1018.90 1019.18 1019.59 1019.85 1020.11 1020.24 1020.50 1020.70 1020.80 1020.90 1021.18 1021.60 1021.59 1021.77 1021.80 1022.14 1022.33 1022.46 1022.48 1022.37 1022.38 1022.42 1022.40 1022.36 1022.35 1022.67 1022.86 1023.01 1023.18 1023.47 1023.62 1023.49 1023.60 1024.07 1024.09 1024.13 1024.08 1024.10 1024.16 1024.19
1018.12 1018.42 1018.68 1018.97 1019.24 1019.65 1019.91 1020.16 1020.29 1020.50 1020.82 1020.83 1020.89 1021.30 1021.66 1021.89 1022.00 1022.08 1022.19 1022.36 1022.48 1022.67 1022.62 1022.61 1022.62 1022.56 1022.33 1022.48 1022.89 1023.05 1023.08 1023.26 1023.33 1023.61 1023.64 1023.63 1023.69 1024.06 1024.06 1024.04 1024.09 1024.12 1024.10
1017.97 1018.49 1018.73 1018.80 1019.17 1019.58 1019.76 1020.13 1020.25 1020.50 1020.74 1020.86 1021.00 1021.23 1021.61 1021.85 1022.05 1022.11 1022.08 1022.19 1022.49 1022.72 1022.59 1022.54 1022.48 1022.44 1022.56 1022.68 1022.91 1023.04 1023.18 1023.20 1023.39 1023.56 1023.62 1023.70 1023.66 1023.50 1023.79 1024.00 1024.04 1024.00 1023.97
1017.78 1018.32 1018.63 1018.85 1019.21 1019.53 1019.89 1020.14 1020.42 1020.63 1020.84 1020.93 1021.01 1021.23 1021.61 1021.81 1021.97 1022.10 1022.06 1022.21 1022.51 1022.54 1022.45 1022.37 1022.55 1022.59 1022.70 1022.80 1022.80 1023.00 1023.05 1023.11 1023.26 1023.16 1023.38 1023.48 1023.46 1023.53 1023.36 1023.70 1023.93 1023.90 1023.79
1017.61 1018.17 1018.60 1018.95 1019.18 1019.60 1019.86 1020.26 1020.36 1020.51 1020.70 1020.90 1020.97 1021.12 1021.49 1021.67 1021.90 1022.13 1022.08 1022.17 1022.23 1022.36 1022.43 1022.45 1022.66 1022.83 1022.94 1023.00 1022.72 1022.84 1022.93 1022.86 1023.01 1022.94 1022.87 1022.96 1023.08 1023.27 1023.20 1023.31 1023.26 1023.01 1023.53
1017.46 1018.00 1018.39 1018.82 1019.11 1019.50 1019.79 1020.03 1020.20 1020.18 1020.45 1020.71 1020.87 1021.22 1021.42 1021.68 1021.84 1022.00 1021.91 1022.02 1022.24 1022.35 1022.50 1022.65 1022.86 1023.02 1023.06 1023.24 1022.91 1022.69 1022.67 1022.74 1022.68 1022.48 1022.46 1022.50 1022.61 1022.76 1022.81 1022.85 1022.96 1022.79 1022.72
1016.87 1017.52 1018.22 1018.61 1019.04 1019.36 1019.59 1019.75 1019.95 1020.12 1020.28 1020.44 1020.63 1021.01 1021.28 1021.55 1021.84 1021.89 1021.95 1022.05 1022.16 1022.42 1022.68 1022.81 1022.92 1022.96 1023.12 1023.40 1023.03 1022.84 1022.27 1022.28 1022.24 1022.18 1022.18 1022.26 1022.31 1022.34 1022.31 1022.44 1022.56 1022.66 1022.68
1016.62 1017.12 1017.65 1018.06 1018.74 1019.24 1019.66 1019.85 1020.00 1020.24 1020.40 1020.58 1020.75 1020.88 1021.00 1021.44 1021.72 1021.81 1021.99 1022.24 1022.28 1022.36 1022.47 1022.80 1022.96 1022.95 1022.84 1023.43 1023.45 1023.11 1022.46 1022.28 1022.26 1022.11 1022.09 1022.10 1022.19 1022.08 1022.09 1022.14 1022.20 1022.22 1022.33
1015.90 1016.57 1017.22 1017.88 1018.44 1018.92 1019.52 1019.74 1019.82 1019.66 1019.76 1019.85 1020.26 1020.56 1020.67 1021.23 1021.64 1021.87 1022.00 1022.25 1022.46 1022.39 1022.51 1022.64 1022.80 1022.93 1023.02 1023.00 1023.39 1023.38 1023.44 1023.27 1022.51 1021.79 1021.78 1021.88 1021.99 1021.86 1021.74 1021.68 1021.61 1021.71 1021.94
1015.36 1015.96 1016.74 1017.59 1018.25 1018.64 1019.05 1019.38 1019.70 1019.63 1019.65 1019.88 1020.26 1020.59 1020.77 1021.04 1021.40 1021.69 1021.88 1022.08 1022.28 1022.30 1022.45 1022.62 1022.85 1022.94 1023.05 1023.02 1023.01 1023.13 1023.26 1023.24 1023.25 1022.66 1021.77 1021.64 1021.56 1021.60 1021.42 1021.40 1021.36 1021.44 1021.58
1014.97 1015.58 1016.28 1017.22 1017.72 1018.32 1018.86 1019.16 1019.46 1019.53 1019.69 1019.84 1020.14 1020.34 1020.59 1020.78 1020.91 1021.54 1021.78 1022.00 1022.20 1022.29 1022.38 1022.40 1022.52 1022.79 1022.99 1023.14 1023.16 1023.16 1023.02 1022.92 1022.76 1022.68 1022.28 1021.97 1021.77 1021.47 1021.38 1021.24 1021.23 1021.29 1021.35
Wind_Speed
10 9 10 12 12 13 13 14 13 13 13 12 12 12 11 10 10 11 11 12 12 12 12 14 12 12 12 14 14 14 16 15 16 17 17 17 17 16 17 14 14 16 14
15 11 12 12 11 13 13 13 13 12 11 12 11 11 10 10 10 10 10 12 10 12 11 12 12 12 13 13 13 14 15 14 14 17 17 17 16 17 16 16 17 14 15
16 12 12 10 11 12 13 12 11 11 10 11 10 11 11 10 10 10 9 10 10 12 11 11 12 11 13 12 14 14 15 14 16 16 12 11 13 17 16 15 15 16 16
16 13 12 10 11 12 11 11 10 10 10 10 10 9 9 9 9 8 11 8 10 12 11 11 11 12 11 12 14 15 15 15 14 11 9 11 12 16 15 14 14 15 15
14 12 12 12 11 12 11 10 9 9 9 9 9 8 9 8 9 10 10 10 11 12 12 11 11 10 10 11 13 14 14 14 13 11 10 10 10 13 13 13 14 12 15
14 12 13 12 12 12 11 10 9 8 8 8 8 7 8 9 10 10 11 11 11 11 12 11 10 9 10 9 12 13 13 13 11 10 11 9 10 13 13 13 14 13 13
14 12 12 11 11 10 10 8 10 9 9 7 8 7 8 10 9 10 12 12 11 11 12 11 11 16 11 10 9 13 13 11 9 9 9 10 11 12 12 14 13 13 11
14 12 11 11 10 9 9 10 9 10 9 8 8 8 9 9 9 10 12 11 12 12 12 11 11 13 13 9 12 11 11 9 8 8 9 9 9 11 12 12 12 10 11
11 11 9 9 9 9 8 8 9 10 10 9 9 9 9 9 10 10 9 10 12 12 12 10 11 12 11 11 11 12 12 10 7 6 8 6 7 10 11 11 11 11 11
10 10 8 8 8 7 9 9 9 8 10 9 10 9 11 10 10 10 8 11 12 11 10 11 10 9 8 10 13 13 12 8 7 7 5 7 7 11 10 10 10 9 9
10 9 8 8 8 7 7 9 9 10 11 10 10 11 10 7 7 8 10 12 11 11 9 9 8 9 9 11 13 12 6 4 6 4 4 5 5 9 8 10 9 8 9
12 11 9 8 8 8 7 8 7 7 6 7 7 7 6 7 7 8 10 12 11 9 9 8 7 8 4 4 6 7 4 5 4 4 5 2 7 8 9 7 7 6 7
12 10 10 8 7 8 6 6 4 4 4 5 7 6 6 5 5 5 5 5 5 6 4 4 4 4 5 4 3 4 5 3 3 3 6 3 7 6 8 6 5 6 5
13 11 11 10 8 7 6 5 6 5 5 4 5 5 4 4 5 5 4 5 4 3 4 3 3 3 3 2 3 4 4 3 3 3 6 4 6 5 4 3 5 4 4
13 12 12 10 9 7 6 5 5 5 4 5 3 4 3 4 5 5 5 4 3 3 3 3 3 4 4 3 3 4 4 4 4 2 2 5 4 4 4 2 1 2 2
12 13 12 12 9 7 6 6 5 4 4 3 3 3 4 3 4 4 4 4 2 2 2 2 3 4 4 3 4 4 4 3 3 2 2 3 1 3 3 3 3 3 4
12 12 13 12 10 8 8 7 5 4 4 3 3 4 5 4 3 3 3 3 2 1 1 1 1 2 4 4 6 4 2 3 2 2 1 2 2 4 3 4 4 4 5
12 12 12 10 11 10 8 7 5 4 4 3 3 3 5 2 1 1 3 3 4 2 2 2 1 3 4 3 3 3 2 1 1 0 1 2 2 3 4 4 6 6 6
14 13 13 12 12 11 8 5 5 4 3 2 3 3 4 3 4 2 2 3 3 3 3 3 3 3 3 2 1 2 1 1 2 1 2 3 3 4 3 2 6 7 8
14 13 12 11 11 10 6 5 4 4 4 4 4 3 4 3 5 4 3 3 2 3 3 3 4 4 2 2 2 2 1 2 3 3 3 3 3 5 5 5 4 3 6
13 13 14 13 12 9 8 7 6 6 5 5 4 5 5 4 4 4 3 3 3 1 3 4 4 4 3 1 1 0 2 4 4 4 4 4 4 5 5 5 5 4 3
16 15 14 14 12 11 8 7 4 4 3 3 5 5 5 5 5 5 4 3 3 3 3 3 3 3 2 1 2 1 2 2 0 3 3 4 5 4 5 5 6 6 6
16 16 15 15 14 11 9 6 3 4 3 4 5 5 5 6 5 4 5 3 3 2 4 4 4 3 2 3 2 3 1 4 4 1 0 2 3 3 4 5 6 6 6
19 17 16 14 14 12 12 9 10 7 7 6 6 5 5 6 5 5 5 5 4 4 3 4 4 2 2 3 3 1 1 2 3 3 1 1 2 3 3 3 4 4 5
18 17 16 15 14 13 12 11 10 9 7 5 5 6 5 6 6 5 5 5 5 4 4 4 4 3 2 1 1 2 1 1 0 3 4 4 1 1 2 3 4 4 4
16 16 15 15 14 14 13 13 13 12 9 6 7 6 6 6 5 6 6 6 5 4 5 5 4 4 3 2 2 1 2 2 3 2 2 3 4 3 3 3 4 3 3
Wind_Direction
162 153 154 127 125 123 116 112 107 106 106 100 102 101 99 97 96 90 91 89 91 83 85 88 93 98 95 86 85 89 90 94 94 92 94 92 92 89 85 87 111 94 88
148 157 151 135 133 122 119 112 114 114 113 113 111 101 99 98 94 94 91 98 91 98 93 97 95 97 92 94 95 93 90 93 89 93 95 91 90 88 86 82 74 84 82
149 149 148 137 127 130 125 123 120 118 111 105 97 91 92 96 102 101 101 106 102 104 98 91 95 98 100 102 95 93 94 93 91 91 93 88 91 89 87 85 88 84 77
145 148 146 134 131 135 132 132 120 113 106 101 93 84 84 86 86 104 105 102 114 107 98 95 93 101 100 98 100 94 93 92 89 101 88 89 87 88 92 86 84 84 85
144 144 137 133 132 136 136 128 117 107 104 102 94 89 88 101 96 92 97 104 95 95 103 94 94 97 104 101 102 97 97 94 91 92 94 81 87 87 96 95 95 91 70
143 143 134 139 132 131 132 127 119 107 108 108 98 106 104 97 97 95 96 98 101 100 98 92 97 94 75 100 96 98 97 96 105 97 94 91 89 92 89 92 83 79 81
142 142 140 142 131 129 128 132 120 122 121 127 128 104 93 96 99 96 100 96 102 96 93 93 89 78 74 81 108 103 104 98 98 97 96 91 93 88 90 85 87 79 78
139 138 141 143 131 140 138 131 133 124 129 129 111 103 99 86 86 87 94 98 97 94 97 92 89 118 114 118 103 104 103 102 94 94 93 92 94 97 95 90 84 86 79
138 136 142 143 142 143 137 139 125 127 133 127 112 102 105 89 89 86 94 105 99 98 96 94 90 97 96 110 110 97 99 94 101 94 104 99 99 97 93 88 87 84 80
140 137 142 145 137 137 143 133 126 126 120 118 113 105 95 92 87 91 119 97 99 102 101 92 83 84 105 96 99 105 105 113 95 97 84 91 101 93 95 93 85 79 82
145 147 151 145 140 138 138 131 135 116 108 105 109 86 94 92 94 94 84 99 100 104 99 95 87 91 96 107 107 100 112 85 101 93 97 89 99 93 90 95 86 78 67
153 152 153 150 146 144 138 124 116 107 100 102 96 97 99 99 87 79 91 100 104 106 103 95 80 74 61 70 98 123 80 96 93 99 88 78 106 88 83 88 88 81 84
159 158 160 155 159 154 133 140 130 120 118 109 105 102 103 112 99 88 90 94 102 92 99 100 88 53 44 33 72 74 88 109 97 96 87 64 87 95 88 79 76 67 66
166 168 163 167 166 156 150 154 134 134 130 118 105 95 117 121 110 99 94 92 98 96 99 73 77 38 22 23 52 86 88 84 85 92 96 68 74 76 77 69 57 50 40
171 174 170 171 172 163 161 155 143 141 140 120 123 105 119 123 118 112 102 101 89 106 102 96 64 34 17 15 86 96 82 73 69 73 72 61 34 23 58 34 57 14 5
178 177 173 176 176 166 169 167 158 155 132 137 128 115 137 123 126 125 121 117 108 100 81 49 40 21 25 63 90 96 75 83 82 74 69 109 17 357 353 310 336 323 316
186 175 179 178 178 177 176 178 173 165 158 173 153 145 147 153 141 133 132 143 120 139 129 144 62 63 60 86 79 89 80 69 85 67 359 4 104 209 278 296 302 294 297
187 183 183 184 181 182 184 183 188 171 177 176 168 165 179 174 238 196 177 142 135 145 133 129 114 85 64 80 82 78 62 74 65 117 287 305 312 308 189 247 284 279 286
190 184 188 190 186 186 188 196 194 187 195 201 186 183 178 196 179 205 183 146 166 152 121 130 117 70 84 80 124 91 70 360 263 250 264 262 268 277 301 163 268 283 276
192 188 192 196 188 187 178 189 198 213 207 207 198 194 192 188 158 182 172 155 165 154 128 107 116 80 80 34 71 85 325 263 251 256 262 252 254 257 266 274 282 261 246
192 186 192 196 193 184 181 190 207 220 208 188 192 195 186 186 176 183 176 159 152 180 90 125 127 133 118 93 251 206 261 252 251 255 262 268 264 258 271 270 274 287 283
195 193 190 198 195 198 191 189 203 199 196 203 181 177 191 198 177 181 163 187 177 158 158 132 154 148 115 116 16 330 11 144 275 281 258 268 283 284 277 273 282 279 283
199 196 199 198 193 198 201 191 150 151 141 162 180 184 186 184 195 191 176 195 201 215 178 160 169 191 138 122 46 337 352 19 332 64 287 292 303 280 289 278 278 276 273
205 201 201 201 198 195 188 200 202 198 189 195 185 180 171 175 181 189 182 184 190 211 189 174 169 155 198 141 160 149 11 337 347 348 70 359 275 270 290 288 299 299 291
203 203 202 199 200 202 191 203 204 212 205 186 184 178 184 174 180 191 192 188 199 207 181 187 179 167 178 207 205 155 197 203 240 313 359 15 126 48 353 303 317 306 304
204 207 200 196 200 197 198 197 208 209 199 192 189 186 188 186 187 190 192 195 193 200 198 196 191 178 186 171 172 165 306 330 28 356 333 5 354 17 340 344 350 332 321